Location: Emory University Observatory
(33.7903°N, 84.3267°W)
Time: 09:37:24
(UTC-04:00)

Vanguard 2 - All Passes

Search period start: 20 June 2018 00:00
Search period end: 30 June 2018 00:00
Orbit: 553 x 2939 km, 32.9° (Epoch: 19 June)

Date Brightness Start Highest point End Pass type
(mag) Time Alt. Az. Time Alt. Az. Time Alt. Az.
20 Jun - 03:32:32 10° SSW 03:39:00 25° SSE 03:43:34 10° ESE visible
20 Jun - 05:41:44 10° WSW 05:47:39 57° SSE 05:51:50 10° E visible
20 Jun - 07:51:26 10° W 07:55:48 79° S 07:59:45 10° E daylight
20 Jun - 10:00:04 10° W 10:03:44 37° SSW 10:08:09 10° SE daylight
20 Jun - 12:10:31 10° SW 12:12:07 11° SSW 12:13:52 10° S daylight
21 Jun - 01:43:28 10° S 01:47:37 13° SSE 01:51:06 10° SE night (unlit)
21 Jun - 03:49:49 10° SW 03:57:10 34° SSE 04:02:02 10° E visible
21 Jun - 05:59:51 10° WSW 06:05:44 70° S 06:09:54 10° E visible
21 Jun - 08:09:35 10° W 08:13:52 71° S 08:17:50 10° ESE daylight
21 Jun - 10:18:25 10° WSW 10:21:46 25° SSW 10:25:43 10° SE daylight
22 Jun - 01:58:54 10° SSW 02:05:54 20° SSE 02:11:05 10° ESE visible
22 Jun - 04:07:29 10° SW 04:15:18 45° SSE 04:20:18 10° E visible
22 Jun - 06:18:04 10° W 06:23:49 79° S 06:27:57 10° E daylight
22 Jun - 08:27:45 10° W 08:31:54 57° SSW 08:35:50 10° ESE daylight
22 Jun - 10:37:06 10° WSW 10:39:47 17° SSW 10:42:49 10° SSE daylight
23 Jun - 02:15:30 10° SSW 02:24:10 27° SSE 02:30:02 10° E visible
23 Jun - 04:25:26 10° WSW 04:33:25 57° SSE 04:38:25 10° E visible
23 Jun - 06:36:19 10° W 06:41:54 82° S 06:46:00 10° E daylight
23 Jun - 08:45:58 10° W 08:49:53 41° SSW 08:53:42 10° SE daylight
23 Jun - 10:57:27 10° SSW 10:57:47 10° SSW 10:58:08 10° SSW daylight
24 Jun - 00:26:02 10° S 00:32:10 15° SSE 00:37:12 10° ESE night (unlit)
24 Jun - 02:32:42 10° SW 02:42:23 36° SSE 02:48:34 10° E visible
24 Jun - 04:43:34 10° WSW 04:51:32 69° S 04:56:29 10° E visible
24 Jun - 06:54:33 10° W 06:59:59 77° S 07:04:02 10° E daylight
24 Jun - 09:04:17 10° W 09:07:50 28° SSW 09:11:22 10° SE daylight
25 Jun - 00:41:26 10° SSW 00:50:29 21° SSE 00:57:10 10° ESE visible
25 Jun - 02:50:18 10° SW 03:00:34 47° SSE 03:06:51 10° E visible
25 Jun - 05:01:50 10° WSW 05:09:39 78° S 05:14:32 10° E visible
25 Jun - 07:12:48 10° W 07:18:03 67° SSW 07:22:02 10° ESE daylight
25 Jun - 09:22:52 10° WSW 09:25:45 19° SSW 09:28:38 10° SSE daylight
26 Jun - 00:57:54 10° SSW 01:08:46 29° SSE 01:16:12 10° E visible
26 Jun - 03:08:12 10° WSW 03:18:45 58° SSE 03:25:01 10° E visible
26 Jun - 05:20:10 10° W 05:27:47 83° S 05:32:34 10° E visible
26 Jun - 07:31:04 10° W 07:36:03 52° SSW 07:39:56 10° ESE daylight
26 Jun - 09:42:20 10° SW 09:43:38 11° SSW 09:44:56 10° S daylight
26 Jun - 23:08:43 10° S 23:16:11 15° SSE 23:22:25 10° ESE visible
27 Jun - 01:14:57 10° SW 01:27:01 38° SSE 01:34:48 10° E visible
27 Jun - 03:26:19 10° WSW 03:36:54 68° SSE 03:43:05 10° E visible
27 Jun - 05:38:31 10° W 05:45:54 82° S 05:50:36 10° E visible
27 Jun - 07:49:23 10° W 07:53:59 37° SSW 07:57:42 10° SE daylight
27 Jun - 23:23:52 10° S 23:34:28 22° SSE 23:42:39 10° ESE visible
28 Jun - 01:32:25 10° SW 01:45:14 47° SSE 01:53:09 10° E visible
28 Jun - 03:44:37 10° WSW 03:55:03 77° S 04:01:08 10° E visible
28 Jun - 05:56:52 10° W 06:04:00 76° S 06:08:36 10° ESE visible
28 Jun - 08:07:52 10° W 08:11:50 25° SSW 08:15:11 10° SSE daylight
28 Jun - 23:40:06 10° SSW 23:52:44 30° SSE 00:01:52 10° E visible
29 Jun - 01:50:14 10° SW 02:03:26 58° SSE 02:11:21 10° E visible
29 Jun - 04:03:00 10° W 04:13:13 83° S 04:19:10 10° E visible
29 Jun - 06:15:12 10° W 06:22:03 64° SSW 06:26:33 10° ESE daylight
29 Jun - 08:26:43 10° WSW 08:29:36 16° SW 08:32:11 10° S daylight
29 Jun - 21:51:59 10° S 21:59:42 15° SE 22:06:31 10° ESE visible
